Location: Holbach
(51.5399°N, 10.6036°E)
Time: 03:42:01
(UTC+00:00)

H-2A R/B - Pass Details

Date: 18 September 2020
Orbit: 734 x 836 km, 98.2° (Epoch: 22 October)

Event Time Altitude Azimuth Distance (km) Brightness Sun altitude
Rises 19:14:48 0° 196° (SSW) 3,164 5.1 -17.4°
Reaches altitude 10° 19:17:20 10° 208° (SSW) 2,255 4.4 -17.7°
Maximum altitude 19:21:36 28° 267° (W) 1,379 3.9 -18.3°
Drops below altitude 10° 19:25:59 10° 327° (NNW) 2,315 5.4 -18.9°
Sets 19:28:38 0° 338° (NNW) 3,264 6.1 -19.3°
